Simultaneous Nadir Overpasses (SNOs) Predictions

Prediction of SNOs between GOES-15 and NPP Satellite Orbit:

Table of predicted SNOs for the next 14.0 days since TLE Epoch: 1/13/2017
Index Date Time (GOES-15) GOES-15 Lat,Lon NPP Lat,Lon Distance(km) Time Diff (sec)
1 01/13/2017 22:12:01 0.06,-134.85 0.81,-131.53 378.50 80
2 01/15/2017 10:31:08 -0.07,-134.95 0.37,-136.80 211.47 80
3 01/16/2017 10:15:04 -0.07,-134.99 -0.68,-132.27 309.34 80
4 01/17/2017 22:36:59 0.07,-135.01 -0.52,-137.57 293.03 80
5 01/18/2017 22:15:35 0.07,-135.04 0.53,-133.05 227.47 80
6 01/20/2017 10:37:22 -0.07,-135.13 0.65,-138.32 363.21 80
7 01/21/2017 10:21:18 -0.07,-135.17 -0.40,-133.79 157.10 80
8 01/22/2017 22:43:13 0.07,-135.18 -0.80,-139.09 446.00 80
9 01/23/2017 22:21:47 0.06,-135.20 0.19,-134.56 73.76 80
10 01/26/2017 10:27:30 -0.06,-135.31 -0.07,-135.30 1.74 80




NCC Satellite Simultaneous Nadir Overpasses (SNOs) Prediction Service
